• In Italy
  • List of Countries
  • For 7 days
  • Water Temperature
  • Satellite Maps
  • Weather Map
  • Weather Widgets
  • user-avatar
    Login

    Hourly Weather Baraki Barak

    Today, 17 October, Tuesday

    Time Temperature Precipitation Wind Pressure Humidity
    00:00 +14°C° 0 mm 1 mps 597 mmHg 18%
    01:00 +13°C° 0 mm 1 mps 597 mmHg 19%
    02:00 +13°C° 0 mm 1 mps 597 mmHg 19%
    03:00 +12°C° 0 mm 1 mps 596 mmHg 20%
    04:00 +12°C° 0 mm 1 mps 596 mmHg 20%
    05:00 +11°C° 0 mm 1 mps 596 mmHg 21%
    06:00 +13°C° 0 mm 1 mps 597 mmHg 20%
    07:00 +14°C° 0 mm 1 mps 598 mmHg 18%
    08:00 +15°C° 0 mm 1 mps 599 mmHg 17%
    09:00 +18°C° 0 mm 1 mps 600 mmHg 15%
    10:00 +19°C° 0 mm 2 mps 600 mmHg 12%
    11:00 +20°C° 0 mm 2 mps 601 mmHg 10%
    12:00 +21°C° 0 mm 2 mps 601 mmHg 10%
    13:00 +22°C° 0 mm 3 mps 601 mmHg 9%
    14:00 +24°C° 0 mm 3 mps 601 mmHg 8%
    15:00 +24°C° 0 mm 3 mps 601 mmHg 9%
    16:00 +22°C° 0 mm 3 mps 600 mmHg 9%
    17:00 +22°C° 0 mm 3 mps 600 mmHg 9%
    18:00 +20°C° 0 mm 3 mps 600 mmHg 11%
    19:00 +19°C° 0 mm 2 mps 599 mmHg 13%
    20:00 +17°C° 0 mm 2 mps 599 mmHg 15%
    21:00 +16°C° 0 mm 1 mps 599 mmHg 16%
    22:00 +16°C° 0 mm 1 mps 598 mmHg 16%
    23:00 +15°C° 0 mm 1 mps 598 mmHg 17%

    Tomorrow, 18 October, Wednesday

    Time Temperature Precipitation Wind Pressure Humidity
    00:00 +14°C° 0 mm 1 mps 598 mmHg 18%
    01:00 +14°C° 0 mm 1 mps 597 mmHg 19%
    02:00 +13°C° 0 mm 1 mps 597 mmHg 19%
    03:00 +13°C° 0 mm 1 mps 597 mmHg 20%
    04:00 +12°C° 0 mm 1 mps 597 mmHg 20%
    05:00 +12°C° 0 mm 1 mps 597 mmHg 21%
    06:00 +13°C° 0 mm 1 mps 598 mmHg 20%
    07:00 +14°C° 0 mm 1 mps 598 mmHg 19%
    08:00 +15°C° 0 mm 2 mps 599 mmHg 18%
    09:00 +17°C° 0 mm 2 mps 600 mmHg 16%
    10:00 +19°C° 0 mm 3 mps 601 mmHg 13%
    11:00 +21°C° 0 mm 3 mps 601 mmHg 11%
    12:00 +22°C° 0 mm 4 mps 601 mmHg 10%
    13:00 +22°C° 0 mm 4 mps 601 mmHg 9%
    14:00 +23°C° 0 mm 4 mps 601 mmHg 9%
    15:00 +23°C° 0 mm 4 mps 601 mmHg 10%
    16:00 +22°C° 0 mm 4 mps 601 mmHg 10%
    17:00 +22°C° 0 mm 4 mps 600 mmHg 11%
    18:00 +21°C° 0 mm 3 mps 600 mmHg 13%
    19:00 +19°C° 0 mm 2 mps 600 mmHg 14%
    20:00 +17°C° 0 mm 2 mps 600 mmHg 16%
    21:00 +18°C° 0 mm 1 mps 599 mmHg 17%
    22:00 +16°C° 0 mm 1 mps 599 mmHg 18%
    23:00 +15°C° 0 mm 1 mps 599 mmHg 19%

    Day after tomorrow, 19 October, Thursday

    Time Temperature Precipitation Wind Pressure Humidity
    00:00 +14°C° 0 mm 1 mps 598 mmHg 20%
    01:00 +14°C° 0 mm 1 mps 598 mmHg 20%
    02:00 +13°C° 0 mm 1 mps 598 mmHg 21%
    03:00 +13°C° 0 mm 1 mps 598 mmHg 22%
    04:00 +12°C° 0 mm 1 mps 597 mmHg 23%
    05:00 +12°C° 0 mm 1 mps 597 mmHg 23%
    06:00 +13°C° 0 mm 1 mps 598 mmHg 22%
    07:00 +14°C° 0 mm 1 mps 599 mmHg 21%
    08:00 +15°C° 0 mm 1 mps 600 mmHg 20%
    09:00 +18°C° 0 mm 1 mps 600 mmHg 18%
    10:00 +19°C° 0 mm 1 mps 601 mmHg 15%
    11:00 +21°C° 0 mm 1 mps 601 mmHg 13%
    12:00 +21°C° 0 mm 1 mps 601 mmHg 12%
    13:00 +21°C° 0 mm 2 mps 601 mmHg 11%
    14:00 +23°C° 0 mm 2 mps 601 mmHg 11%
    15:00 +23°C° 0 mm 2 mps 600 mmHg 11%
    16:00 +21°C° 0 mm 2 mps 600 mmHg 11%
    17:00 +21°C° 0 mm 2 mps 600 mmHg 12%
    18:00 +19°C° 0 mm 2 mps 600 mmHg 15%
    19:00 +18°C° 0 mm 2 mps 600 mmHg 18%
    20:00 +16°C° 0 mm 2 mps 600 mmHg 21%
    21:00 +15°C° 0 mm 2 mps 599 mmHg 23%
    22:00 +15°C° 0 mm 1 mps 599 mmHg 26%
    23:00 +14°C° 0 mm 1 mps 599 mmHg 28%

    20 October, Friday

    Time Temperature Precipitation Wind Pressure Humidity
    00:00 +13°C° 0 mm 1 mps 599 mmHg 30%
    01:00 +13°C° 0 mm 1 mps 598 mmHg 32%
    02:00 +12°C° 0 mm 1 mps 598 mmHg 34%
    03:00 +12°C° 0 mm 1 mps 598 mmHg 35%
    04:00 +11°C° 0 mm 1 mps 598 mmHg 36%
    05:00 +11°C° 0 mm 1 mps 597 mmHg 38%
    06:00 +11°C° 0 mm 1 mps 598 mmHg 36%
    07:00 +12°C° 0 mm 1 mps 599 mmHg 33%
    08:00 +13°C° 0 mm 1 mps 599 mmHg 31%
    09:00 +14°C° 0 mm 1 mps 600 mmHg 27%
    10:00 +16°C° 0 mm 1 mps 600 mmHg 23%
    11:00 +18°C° 0 mm 1 mps 601 mmHg 20%
    12:00 +19°C° 0 mm 1 mps 600 mmHg 18%
    13:00 +20°C° 0 mm 1 mps 600 mmHg 17%
    14:00 +21°C° 0 mm 1 mps 600 mmHg 15%
    15:00 +21°C° 0 mm 1 mps 600 mmHg 15%
    16:00 +19°C° 0 mm 2 mps 600 mmHg 15%
    17:00 +19°C° 0 mm 2 mps 600 mmHg 15%
    18:00 +18°C° 0 mm 2 mps 599 mmHg 17%
    19:00 +18°C° 0 mm 1 mps 599 mmHg 20%
    20:00 +15°C° 0 mm 1 mps 599 mmHg 22%
    21:00 +14°C° 0 mm 1 mps 599 mmHg 23%
    22:00 +14°C° 0 mm 1 mps 598 mmHg 24%
    23:00 +13°C° 0 mm 1 mps 598 mmHg 25%

    21 October, Saturday

    Time Temperature Precipitation Wind Pressure Humidity
    00:00 +11°C° 0 mm 0 mps 597 mmHg 25%
    01:00 +11°C° 0 mm 0 mps 597 mmHg 26%
    02:00 +10°C° 0 mm 0 mps 596 mmHg 27%
    03:00 +10°C° 0 mm 0 mps 596 mmHg 27%
    04:00 +9°C° 0 mm 0 mps 596 mmHg 28%
    05:00 +9°C° 0 mm 0 mps 595 mmHg 29%
    06:00 +10°C° 0 mm 0 mps 596 mmHg 27%
    07:00 +11°C° 0 mm 0 mps 597 mmHg 24%
    08:00 +12°C° 0 mm 0 mps 598 mmHg 22%
    09:00 +15°C° 0 mm 1 mps 598 mmHg 20%
    10:00 +16°C° 0 mm 1 mps 599 mmHg 17%
    11:00 +19°C° 0 mm 1 mps 599 mmHg 15%
    12:00 +20°C° 0 mm 1 mps 599 mmHg 13%
    13:00 +19°C° 0 mm 2 mps 599 mmHg 12%
    14:00 +20°C° 0 mm 2 mps 598 mmHg 11%
    15:00 +20°C° 0 mm 2 mps 598 mmHg 11%
    16:00 +20°C° 0 mm 2 mps 598 mmHg 10%
    17:00 +19°C° 0 mm 2 mps 598 mmHg 10%
    18:00 +18°C° 0 mm 2 mps 597 mmHg 12%
    19:00 +16°C° 0 mm 1 mps 597 mmHg 14%
    20:00 +14°C° 0 mm 1 mps 597 mmHg 16%
    21:00 +13°C° 0 mm 1 mps 596 mmHg 16%
    22:00 +13°C° 0 mm 1 mps 596 mmHg 17%
    23:00 +12°C° 0 mm 1 mps 596 mmHg 17%

    22 October, Sunday

    Time Temperature Precipitation Wind Pressure Humidity
    00:00 +11°C° 0 mm 1 mps 595 mmHg 18%
    01:00 +11°C° 0 mm 1 mps 595 mmHg 18%
    02:00 +10°C° 0 mm 1 mps 594 mmHg 19%
    03:00 +10°C° 0 mm 1 mps 594 mmHg 19%
    04:00 +9°C° 0 mm 1 mps 594 mmHg 19%
    05:00 +8°C° 0 mm 1 mps 594 mmHg 19%
    06:00 +10°C° 0 mm 1 mps 595 mmHg 18%
    07:00 +11°C° 0 mm 1 mps 595 mmHg 16%
    08:00 +12°C° 0 mm 1 mps 596 mmHg 15%
    09:00 +13°C° 0 mm 1 mps 597 mmHg 13%
    10:00 +15°C° 0 mm 1 mps 597 mmHg 12%
    11:00 +16°C° 0 mm 1 mps 598 mmHg 10%
    12:00 +18°C° 0 mm 1 mps 597 mmHg 10%
    13:00 +18°C° 0 mm 1 mps 597 mmHg 9%
    14:00 +19°C° 0 mm 1 mps 597 mmHg 9%
    15:00 +19°C° 0 mm 1 mps 597 mmHg 9%
    16:00 +18°C° 0 mm 2 mps 596 mmHg 9%
    17:00 +17°C° 0 mm 2 mps 596 mmHg 10%
    18:00 +16°C° 0 mm 2 mps 596 mmHg 11%
    19:00 +15°C° 0 mm 1 mps 596 mmHg 13%
    20:00 +13°C° 0 mm 1 mps 596 mmHg 15%
    21:00 +12°C° 0 mm 1 mps 596 mmHg 16%
    22:00 +12°C° 0 mm 1 mps 595 mmHg 17%
    23:00 +11°C° 0 mm 1 mps 595 mmHg 18%
    Show more